Time,TemperatureF,DewpointF,PressureIn,WindDirection,WindDirectionDegrees,WindSpeedMPH,WindSpeedGustMPH,Humidity,HourlyPrecipIn,Conditions,Clouds,dailyrainin,SoftwareType,DateUTC
2013-05-21 00:01:00,60.9,56.0,29.57,WSW,243,8.0,8.0,84,0.00,CLR,CLR,0.04,WeatherDisplay:10.37,2013-05-21 05:01:00,
2013-05-21 00:06:00,60.8,55.9,29.58,West,259,12.0,12.0,84,0.00,CLR,CLR,0.00,WeatherDisplay:10.37,2013-05-21 05:06:00,
2013-05-21 00:11:00,60.7,55.8,29.58,WSW,249,7.0,7.0,84,0.00,CLR,CLR,0.00,WeatherDisplay:10.37,2013-05-21 05:11:00,
2013-05-21 00:16:00,60.7,55.8,29.58,WSW,251,3.5,3.5,84,0.00,CLR,CLR,0.00,WeatherDisplay:10.37,2013-05-21 05:16:00,
2013-05-21 00:21:00,60.8,55.9,29.58,West,260,8.1,8.1,84,0.00,CLR,CLR,0.00,WeatherDisplay:10.37,2013-05-21 05:21:00,
2013-05-21 00:26:00,60.8,55.9,29.59,West,267,8.0,8.0,84,0.00,CLR,CLR,0.00,WeatherDisplay:10.37,2013-05-21 05:26:00,
2013-05-21 00:31:00,60.9,56.0,29.59,WSW,248,4.0,4.0,84,0.00,CLR,CLR,0.00,WeatherDisplay:10.37,2013-05-21 05:31:00,
2013-05-21 00:36:00,60.9,56.0,29.59,WSW,252,2.3,2.3,84,0.00,CLR,CLR,0.00,WeatherDisplay:10.37,2013-05-21 05:36:00,
2013-05-21 00:42:00,60.9,55.7,29.60,West,263,4.0,4.0,83,0.00,CLR,CLR,0.00,WeatherDisplay:10.37,2013-05-21 05:42:00,
2013-05-21 00:47:00,61.0,55.8,29.60,West,273,2.3,2.3,83,0.00,CLR,CLR,0.00,WeatherDisplay:10.37,2013-05-21 05:47:00,
2013-05-21 00:52:00,61.0,55.8,29.60,West,279,2.3,2.3,83,0.00,CLR,CLR,0.00,WeatherDisplay:10.37,2013-05-21 05:52:00,
2013-05-21 00:57:00,61.0,55.8,29.60,WNW,296,1.2,1.2,83,0.00,CLR,CLR,0.00,WeatherDisplay:10.37,2013-05-21 05:57:00,
2013-05-21 01:02:00,61.0,56.1,29.60,WNW,297,1.0,1.0,84,0.00,CLR,CLR,0.00,WeatherDisplay:10.37,2013-05-21 06:02:00,
2013-05-21 01:07:00,60.9,56.4,29.60,WNW,287,1.2,0.0,85,0.00,CLR,CLR,0.00,WeatherDisplay:10.37,2013-05-21 06:07:00,
2013-05-21 01:12:00,60.7,56.5,29.60,West,261,1.2,0.0,86,0.00,CLR,CLR,0.00,WeatherDisplay:10.37,2013-05-21 06:12:00,
2013-05-21 01:17:00,60.5,56.3,29.60,West,276,1.2,1.2,86,0.00,CLR,CLR,0.00,WeatherDisplay:10.37,2013-05-21 06:17:00,
2013-05-21 01:22:00,60.5,55.6,29.60,West,279,3.5,3.5,84,0.00,CLR,CLR,0.00,WeatherDisplay:10.37,2013-05-21 06:22:00,
2013-05-21 01:27:00,60.6,55.7,29.60,WNW,282,4.0,4.0,84,0.00,CLR,CLR,0.00,WeatherDisplay:10.37,2013-05-21 06:27:00,
2013-05-21 01:32:00,60.5,55.6,29.60,WSW,241,9.2,9.2,84,0.00,CLR,CLR,0.00,WeatherDisplay:10.37,2013-05-21 06:32:00,
2013-05-21 01:37:00,60.4,55.5,29.60,WSW,247,8.1,8.1,84,0.00,CLR,CLR,0.00,WeatherDisplay:10.37,2013-05-21 06:37:00,
2013-05-21 01:42:00,60.3,55.4,29.60,West,265,8.0,8.0,84,0.00,CLR,CLR,0.00,WeatherDisplay:10.37,2013-05-21 06:42:00,
2013-05-21 01:47:00,60.2,55.3,29.60,West,262,4.6,4.6,84,0.00,CLR,CLR,0.00,WeatherDisplay:10.37,2013-05-21 06:47:00,
2013-05-21 01:52:00,60.0,55.2,29.61,WSW,252,3.5,3.5,84,0.00,CLR,CLR,0.00,WeatherDisplay:10.37,2013-05-21 06:52:00,
2013-05-21 01:57:00,59.8,55.0,29.61,WSW,238,7.0,7.0,84,0.00,CLR,CLR,0.00,WeatherDisplay:10.37,2013-05-21 06:57:00,
2013-05-21 02:02:00,59.8,55.0,29.61,WSW,253,6.0,6.0,84,0.00,CLR,CLR,0.00,WeatherDisplay:10.37,2013-05-21 07:02:00,
2013-05-21 02:07:00,59.8,54.3,29.61,WNW,303,8.0,8.0,82,0.00,CLR,CLR,0.00,WeatherDisplay:10.37,2013-05-21 07:07:00,
2013-05-21 02:12:00,59.8,54.0,29.60,WSW,254,8.1,8.1,81,0.00,CLR,CLR,0.00,WeatherDisplay:10.37,2013-05-21 07:12:00,
2013-05-21 02:17:00,59.7,53.5,29.60,West,275,10.0,10.0,80,0.00,CLR,CLR,0.00,WeatherDisplay:10.37,2013-05-21 07:17:00,
2013-05-21 02:22:00,59.7,53.5,29.60,WSW,255,4.6,4.6,80,0.00,CLR,CLR,0.00,WeatherDisplay:10.37,2013-05-21 07:22:00,
2013-05-21 02:27:00,59.6,53.4,29.60,WSW,253,7.0,7.0,80,0.00,CLR,CLR,0.00,WeatherDisplay:10.37,2013-05-21 07:27:00,
2013-05-21 02:32:00,59.6,53.4,29.60,West,259,4.0,4.0,80,0.00,CLR,CLR,0.00,WeatherDisplay:10.37,2013-05-21 07:32:00,
2013-05-21 02:37:00,59.5,53.7,29.60,WSW,254,6.0,6.0,81,0.00,CLR,CLR,0.00,WeatherDisplay:10.37,2013-05-21 07:37:00,
2013-05-21 02:42:00,59.4,53.2,29.60,WSW,254,7.0,7.0,80,0.00,CLR,CLR,0.00,WeatherDisplay:10.37,2013-05-21 07:42:00,
2013-05-21 02:47:00,59.3,53.1,29.60,West,272,8.1,8.1,80,0.00,CLR,CLR,0.00,WeatherDisplay:10.37,2013-05-21 07:47:00,
2013-05-21 02:52:00,59.1,52.9,29.60,WNW,283,2.3,2.3,80,0.00,CLR,CLR,0.00,WeatherDisplay:10.37,2013-05-21 07:52:00,
2013-05-21 02:57:00,58.9,53.1,29.60,WNW,288,9.0,9.0,81,0.00,CLR,CLR,0.00,WeatherDisplay:10.37,2013-05-21 07:57:00,
2013-05-21 03:02:00,58.7,52.9,29.60,WSW,254,6.0,6.0,81,0.00,CLR,CLR,0.00,WeatherDisplay:10.37,2013-05-21 08:02:00,
2013-05-21 03:07:00,58.5,53.0,29.60,WSW,237,7.0,7.0,82,0.00,CLR,CLR,0.00,WeatherDisplay:10.37,2013-05-21 08:07:00,
2013-05-21 03:12:00,58.4,52.9,29.60,WSW,241,6.0,6.0,82,0.00,CLR,CLR,0.00,WeatherDisplay:10.37,2013-05-21 08:12:00,
2013-05-21 03:17:00,58.3,52.8,29.60,WSW,257,7.0,7.0,82,0.00,CLR,CLR,0.00,WeatherDisplay:10.37,2013-05-21 08:17:00,
2013-05-21 03:22:00,58.3,52.8,29.60,WSW,241,11.5,11.5,82,0.00,CLR,CLR,0.00,WeatherDisplay:10.37,2013-05-21 08:22:00,
2013-05-21 03:27:00,58.3,52.8,29.60,West,261,6.0,6.0,82,0.00,CLR,CLR,0.00,WeatherDisplay:10.37,2013-05-21 08:27:00,
2013-05-21 03:32:00,58.2,52.7,29.60,WSW,248,3.5,3.5,82,0.00,CLR,CLR,0.00,WeatherDisplay:10.37,2013-05-21 08:32:00,
2013-05-21 03:37:00,58.1,52.6,29.60,WSW,238,10.0,10.0,82,0.00,CLR,CLR,0.00,WeatherDisplay:10.37,2013-05-21 08:37:00,
2013-05-21 03:42:00,58.1,52.6,29.60,West,269,5.0,5.0,82,0.00,CLR,CLR,0.00,WeatherDisplay:10.37,2013-05-21 08:42:00,
2013-05-21 03:47:00,58.0,52.2,29.60,WSW,245,8.1,8.1,81,0.00,CLR,CLR,0.00,WeatherDisplay:10.37,2013-05-21 08:47:00,
2013-05-21 03:52:00,58.0,52.2,29.60,West,275,7.0,7.0,81,0.00,CLR,CLR,0.00,WeatherDisplay:10.37,2013-05-21 08:52:00,
2013-05-21 03:57:00,58.0,52.2,29.61,SW,236,9.2,9.2,81,0.00,CLR,CLR,0.00,WeatherDisplay:10.37,2013-05-21 08:57:00,
2013-05-21 04:02:00,57.9,51.8,29.61,WSW,258,7.0,7.0,80,0.00,CLR,CLR,0.00,WeatherDisplay:10.37,2013-05-21 09:02:00,
2013-05-21 04:08:00,57.8,51.7,29.61,NW,310,8.1,8.1,80,0.00,CLR,CLR,0.00,WeatherDisplay:10.37,2013-05-21 09:08:00,
2013-05-21 04:13:00,57.8,51.7,29.61,WSW,253,7.0,7.0,80,0.00,CLR,CLR,0.00,WeatherDisplay:10.37,2013-05-21 09:13:00,
2013-05-21 04:18:00,57.6,51.5,29.61,WSW,255,9.2,9.2,80,0.00,CLR,CLR,0.00,WeatherDisplay:10.37,2013-05-21 09:18:00,
2013-05-21 04:23:00,57.5,51.7,29.61,WSW,244,4.0,4.0,81,0.00,CLR,CLR,0.00,WeatherDisplay:10.37,2013-05-21 09:23:00,
2013-05-21 04:28:00,57.4,51.3,29.60,WSW,244,8.1,8.1,80,0.00,CLR,CLR,0.00,WeatherDisplay:10.37,2013-05-21 09:28:00,
2013-05-21 04:33:00,57.3,51.5,29.60,West,259,4.6,4.6,81,0.00,CLR,CLR,0.00,WeatherDisplay:10.37,2013-05-21 09:33:00,
2013-05-21 04:38:00,57.1,51.3,29.60,WSW,255,6.9,6.9,81,0.00,CLR,CLR,0.00,WeatherDisplay:10.37,2013-05-21 09:38:00,
2013-05-21 04:43:00,56.9,51.5,29.60,WSW,246,4.6,4.6,82,0.00,CLR,CLR,0.00,WeatherDisplay:10.37,2013-05-21 09:43:00,
2013-05-21 04:48:00,56.8,51.0,29.60,WSW,256,8.1,8.1,81,0.00,CLR,CLR,0.00,WeatherDisplay:10.37,2013-05-21 09:48:00,
2013-05-21 04:53:00,56.7,50.9,29.60,WSW,253,6.9,6.9,81,0.00,CLR,CLR,0.00,WeatherDisplay:10.37,2013-05-21 09:53:00,
2013-05-21 04:58:00,56.6,50.8,29.60,West,266,11.5,11.5,81,0.00,CLR,CLR,0.00,WeatherDisplay:10.37,2013-05-21 09:58:00,
2013-05-21 05:03:00,56.5,50.7,29.60,WSW,249,8.1,8.1,81,0.00,CLR,CLR,0.00,WeatherDisplay:10.37,2013-05-21 10:03:00,
2013-05-21 05:08:00,56.4,50.6,29.61,NW,319,4.6,4.6,81,0.00,CLR,CLR,0.00,WeatherDisplay:10.37,2013-05-21 10:08:00,
2013-05-21 05:13:00,56.4,50.6,29.61,West,265,8.0,8.0,81,0.00,CLR,CLR,0.00,WeatherDisplay:10.37,2013-05-21 10:13:00,
2013-05-21 05:18:00,56.3,50.5,29.61,West,269,5.8,5.8,81,0.00,CLR,CLR,0.00,WeatherDisplay:10.37,2013-05-21 10:18:00,
2013-05-21 05:23:00,56.2,50.1,29.62,WSW,242,5.0,5.0,80,0.00,CLR,CLR,0.00,WeatherDisplay:10.37,2013-05-21 10:23:00,
2013-05-21 05:28:00,56.1,50.3,29.62,West,265,5.8,5.8,81,0.00,CLR,CLR,0.00,WeatherDisplay:10.37,2013-05-21 10:28:00,
2013-05-21 05:33:00,55.9,50.2,29.62,WSW,245,2.3,2.3,81,0.00,CLR,CLR,0.00,WeatherDisplay:10.37,2013-05-21 10:33:00,
2013-05-21 05:38:00,55.8,49.7,29.62,West,260,8.1,8.1,80,0.00,CLR,CLR,0.00,WeatherDisplay:10.37,2013-05-21 10:38:00,
2013-05-21 05:43:00,55.7,49.6,29.62,WSW,254,8.1,8.1,80,0.00,CLR,CLR,0.00,WeatherDisplay:10.37,2013-05-21 10:43:00,
2013-05-21 05:48:00,55.8,49.7,29.62,West,269,7.0,7.0,80,0.00,CLR,CLR,0.00,WeatherDisplay:10.37,2013-05-21 10:48:00,
2013-05-21 05:53:00,55.9,49.5,29.63,SW,229,10.4,10.4,79,0.00,CLR,CLR,0.00,WeatherDisplay:10.37,2013-05-21 10:53:00,
2013-05-21 05:58:00,56.2,49.4,29.63,WSW,246,8.0,8.0,78,0.00,CLR,CLR,0.00,WeatherDisplay:10.37,2013-05-21 10:58:00,
2013-05-21 06:03:00,56.3,49.5,29.63,WSW,246,8.0,8.0,78,0.00,CLR,CLR,0.00,WeatherDisplay:10.37,2013-05-21 11:03:00,
2013-05-21 06:08:00,56.4,49.6,29.63,West,265,11.5,11.5,78,0.00,CLR,CLR,0.00,WeatherDisplay:10.37,2013-05-21 11:08:00,
2013-05-21 06:13:00,56.4,49.6,29.63,NNW,330,3.5,3.5,78,0.00,CLR,CLR,0.00,WeatherDisplay:10.37,2013-05-21 11:13:00,
2013-05-21 06:18:00,56.4,49.3,29.63,WSW,248,7.0,7.0,77,0.00,CLR,CLR,0.00,WeatherDisplay:10.37,2013-05-21 11:18:00,
2013-05-21 06:23:00,56.3,49.2,29.62,WSW,243,4.0,4.0,77,0.00,CLR,CLR,0.00,WeatherDisplay:10.37,2013-05-21 11:23:00,
2013-05-21 06:28:00,56.2,48.7,29.62,West,261,7.0,7.0,76,0.00,CLR,CLR,0.00,WeatherDisplay:10.37,2013-05-21 11:28:00,
2013-05-21 06:33:00,56.0,48.5,29.62,West,281,6.9,6.9,76,0.00,CLR,CLR,0.00,WeatherDisplay:10.37,2013-05-21 11:33:00,
2013-05-21 06:38:00,56.0,48.5,29.62,NW,324,5.8,5.8,76,0.00,CLR,CLR,0.00,WeatherDisplay:10.37,2013-05-21 11:38:00,
2013-05-21 06:43:00,55.9,48.4,29.63,WNW,298,3.5,3.5,76,0.00,CLR,CLR,0.00,WeatherDisplay:10.37,2013-05-21 11:43:00,
2013-05-21 06:48:00,55.9,48.1,29.63,West,274,3.5,3.5,75,0.00,CLR,CLR,0.00,WeatherDisplay:10.37,2013-05-21 11:48:00,
2013-05-21 06:53:00,55.8,48.3,29.63,WSW,249,7.0,7.0,76,0.00,CLR,CLR,0.00,WeatherDisplay:10.37,2013-05-21 11:53:00,
2013-05-21 06:58:00,55.6,48.2,29.64,West,262,3.5,3.5,76,0.00,CLR,CLR,0.00,WeatherDisplay:10.37,2013-05-21 11:58:00,
2013-05-21 07:03:00,55.7,48.2,29.64,WSW,252,4.6,4.6,76,0.00,CLR,CLR,0.00,WeatherDisplay:10.37,2013-05-21 12:03:00,
2013-05-21 07:08:00,55.7,48.6,29.65,SW,232,4.6,4.6,77,0.00,CLR,CLR,0.00,WeatherDisplay:10.37,2013-05-21 12:08:00,
2013-05-21 07:13:00,55.9,48.4,29.66,SW,219,8.0,8.0,76,0.00,CLR,CLR,0.00,WeatherDisplay:10.37,2013-05-21 12:13:00,
2013-05-21 07:18:00,56.0,48.2,29.66,WSW,250,7.0,7.0,75,0.00,CLR,CLR,0.00,WeatherDisplay:10.37,2013-05-21 12:18:00,
2013-05-21 07:23:00,56.2,48.4,29.66,WSW,244,5.0,5.0,75,0.00,CLR,CLR,0.00,WeatherDisplay:10.37,2013-05-21 12:23:00,
2013-05-21 07:28:00,56.4,48.6,29.66,West,268,2.3,2.3,75,0.00,CLR,CLR,0.00,WeatherDisplay:10.37,2013-05-21 12:28:00,
2013-05-21 07:33:00,56.5,48.7,29.66,WSW,244,4.6,4.6,75,0.00,CLR,CLR,0.00,WeatherDisplay:10.37,2013-05-21 12:33:00,
2013-05-21 07:38:00,56.6,49.1,29.66,WSW,249,5.0,5.0,76,0.00,CLR,CLR,0.00,WeatherDisplay:10.37,2013-05-21 12:38:00,
2013-05-21 07:43:00,56.9,49.4,29.67,WSW,253,8.1,8.1,76,0.00,CLR,CLR,0.00,WeatherDisplay:10.37,2013-05-21 12:43:00,
2013-05-21 07:48:00,57.2,49.0,29.67,WSW,248,6.0,6.0,74,0.00,CLR,CLR,0.00,WeatherDisplay:10.37,2013-05-21 12:48:00,
2013-05-21 07:53:00,57.5,49.6,29.67,WSW,240,5.0,5.0,75,0.00,CLR,CLR,0.00,WeatherDisplay:10.37,2013-05-21 12:53:00,
2013-05-21 07:58:00,57.7,49.1,29.67,NW,309,11.5,11.5,73,0.00,CLR,CLR,0.00,WeatherDisplay:10.37,2013-05-21 12:58:00,
2013-05-21 08:03:00,58.0,49.4,29.66,WSW,246,5.0,5.0,73,0.00,CLR,CLR,0.00,WeatherDisplay:10.37,2013-05-21 13:03:00,
2013-05-21 08:08:00,58.3,49.7,29.67,WSW,241,8.0,8.0,73,0.00,CLR,CLR,0.00,WeatherDisplay:10.37,2013-05-21 13:08:00,
2013-05-21 08:13:00,58.4,49.4,29.67,WSW,240,9.0,9.0,72,0.00,CLR,CLR,0.00,WeatherDisplay:10.37,2013-05-21 13:13:00,
2013-05-21 08:18:00,58.5,49.1,29.67,WSW,254,4.0,4.0,71,0.00,CLR,CLR,0.00,WeatherDisplay:10.37,2013-05-21 13:18:00,
2013-05-21 08:23:00,58.8,49.4,29.67,West,276,9.2,9.2,71,0.00,CLR,CLR,0.00,WeatherDisplay:10.37,2013-05-21 13:23:00,
2013-05-21 08:28:00,59.0,49.6,29.67,WSW,243,11.5,11.5,71,0.00,CLR,CLR,0.00,WeatherDisplay:10.37,2013-05-21 13:28:00,
2013-05-21 08:33:00,59.2,49.4,29.66,WSW,252,8.0,8.0,70,0.00,CLR,CLR,0.00,WeatherDisplay:10.37,2013-05-21 13:33:00,
2013-05-21 08:38:00,59.3,49.1,29.66,West,259,10.4,10.4,69,0.00,CLR,CLR,0.00,WeatherDisplay:10.37,2013-05-21 13:38:00,
2013-05-21 08:43:00,59.0,48.8,29.66,West,273,12.0,12.0,69,0.00,CLR,CLR,0.00,WeatherDisplay:10.37,2013-05-21 13:43:00,
2013-05-21 08:48:00,59.1,49.3,29.66,SW,227,14.0,14.0,70,0.00,CLR,CLR,0.00,WeatherDisplay:10.37,2013-05-21 13:48:00,
2013-05-21 08:53:00,59.0,48.8,29.66,WSW,238,12.0,12.0,69,0.00,CLR,CLR,0.00,WeatherDisplay:10.37,2013-05-21 13:53:00,
2013-05-21 08:58:00,58.8,49.0,29.66,WSW,246,10.0,10.0,70,0.00,CLR,CLR,0.00,WeatherDisplay:10.37,2013-05-21 13:58:00,
2013-05-21 09:03:00,58.8,49.0,29.66,WSW,250,11.5,11.5,70,0.00,CLR,CLR,0.00,WeatherDisplay:10.37,2013-05-21 14:03:00,
2013-05-21 09:08:00,59.2,49.4,29.65,West,268,6.0,6.0,70,0.00,CLR,CLR,0.00,WeatherDisplay:10.37,2013-05-21 14:08:00,
2013-05-21 09:13:00,59.7,49.5,29.65,NNW,337,8.1,8.1,69,0.00,CLR,CLR,0.00,WeatherDisplay:10.37,2013-05-21 14:13:00,
2013-05-21 09:18:00,59.8,49.2,29.65,WSW,251,15.0,15.0,68,0.00,CLR,CLR,0.00,WeatherDisplay:10.37,2013-05-21 14:18:00,
2013-05-21 09:23:00,59.9,49.3,29.65,SW,236,7.0,7.0,68,0.00,CLR,CLR,0.00,WeatherDisplay:10.37,2013-05-21 14:23:00,
2013-05-21 09:28:00,60.2,48.8,29.65,NNE,15,8.1,8.1,66,0.00,CLR,CLR,0.00,WeatherDisplay:10.37,2013-05-21 14:28:00,
2013-05-21 09:33:00,60.5,49.1,29.65,West,281,9.2,9.2,66,0.00,CLR,CLR,0.00,WeatherDisplay:10.37,2013-05-21 14:33:00,
2013-05-21 09:38:00,60.5,48.7,29.66,WNW,285,6.9,6.9,65,0.00,CLR,CLR,0.00,WeatherDisplay:10.37,2013-05-21 14:38:00,
2013-05-21 09:43:00,59.9,48.5,29.65,WSW,257,11.5,11.5,66,0.00,CLR,CLR,0.00,WeatherDisplay:10.37,2013-05-21 14:43:00,
2013-05-21 09:48:00,59.7,48.7,29.65,WSW,238,9.2,9.2,67,0.00,CLR,CLR,0.00,WeatherDisplay:10.37,2013-05-21 14:48:00,
2013-05-21 09:53:00,59.9,48.9,29.66,West,269,10.4,10.4,67,0.00,CLR,CLR,0.00,WeatherDisplay:10.37,2013-05-21 14:53:00,
2013-05-21 09:58:00,59.7,48.7,29.66,NW,325,3.5,3.5,67,0.00,CLR,CLR,0.00,WeatherDisplay:10.37,2013-05-21 14:58:00,
2013-05-21 10:03:00,59.7,48.7,29.66,NW,317,4.0,4.0,67,0.00,CLR,CLR,0.00,WeatherDisplay:10.37,2013-05-21 15:03:00,
2013-05-21 10:08:00,59.5,48.1,29.66,West,280,11.5,11.5,66,0.00,CLR,CLR,0.00,WeatherDisplay:10.37,2013-05-21 15:08:00,
2013-05-21 10:13:00,59.7,47.9,29.66,WNW,285,10.4,10.4,65,0.00,CLR,CLR,0.00,WeatherDisplay:10.37,2013-05-21 15:13:00,
2013-05-21 10:18:00,60.1,48.3,29.66,WSW,254,10.4,10.4,65,0.00,CLR,CLR,0.00,WeatherDisplay:10.37,2013-05-21 15:18:00,
2013-05-21 10:23:00,60.0,47.8,29.66,WSW,247,7.0,7.0,64,0.00,CLR,CLR,0.00,WeatherDisplay:10.37,2013-05-21 15:23:00,
2013-05-21 10:28:00,59.9,47.7,29.66,WSW,254,8.1,8.1,64,0.00,CLR,CLR,0.00,WeatherDisplay:10.37,2013-05-21 15:28:00,
2013-05-21 10:33:00,60.0,47.8,29.66,NW,323,11.5,11.5,64,0.00,CLR,CLR,0.00,WeatherDisplay:10.37,2013-05-21 15:33:00,
2013-05-21 10:38:00,60.5,47.8,29.66,WSW,254,11.0,11.0,63,0.00,CLR,CLR,0.00,WeatherDisplay:10.37,2013-05-21 15:38:00,
2013-05-21 10:43:00,60.7,48.0,29.65,West,277,10.0,10.0,63,0.00,CLR,CLR,0.00,WeatherDisplay:10.37,2013-05-21 15:43:00,
2013-05-21 10:48:00,60.4,47.3,29.65,West,272,15.0,15.0,62,0.00,CLR,CLR,0.00,WeatherDisplay:10.37,2013-05-21 15:48:00,
2013-05-21 10:53:00,60.2,47.6,29.65,West,259,11.5,11.5,63,0.00,CLR,CLR,0.00,WeatherDisplay:10.37,2013-05-21 15:53:00,
2013-05-21 10:58:00,60.2,47.1,29.65,WSW,238,11.5,11.5,62,0.00,CLR,CLR,0.00,WeatherDisplay:10.37,2013-05-21 15:58:00,
2013-05-21 11:03:00,60.5,47.4,29.65,SW,230,10.4,10.4,62,0.00,CLR,CLR,0.00,WeatherDisplay:10.37,2013-05-21 16:03:00,
2013-05-21 11:08:00,60.6,47.1,29.65,WNW,302,5.8,5.8,61,0.00,CLR,CLR,0.00,WeatherDisplay:10.37,2013-05-21 16:08:00,
2013-05-21 11:13:00,61.1,47.5,29.65,WSW,242,5.0,5.0,61,0.00,CLR,CLR,0.00,WeatherDisplay:10.37,2013-05-21 16:13:00,
2013-05-21 11:18:00,60.8,46.8,29.65,WSW,255,12.0,12.0,60,0.00,CLR,CLR,0.00,WeatherDisplay:10.37,2013-05-21 16:18:00,
2013-05-21 11:23:00,60.5,47.4,29.65,WSW,239,15.0,15.0,62,0.00,CLR,CLR,0.00,WeatherDisplay:10.37,2013-05-21 16:23:00,
2013-05-21 11:28:00,59.8,47.2,29.66,West,271,11.5,11.5,63,0.00,CLR,CLR,0.00,WeatherDisplay:10.37,2013-05-21 16:28:00,
2013-05-21 11:33:00,59.7,47.1,29.66,SW,234,9.0,9.0,63,0.00,CLR,CLR,0.00,WeatherDisplay:10.37,2013-05-21 16:33:00,
2013-05-21 11:38:00,60.0,47.4,29.66,WSW,250,12.0,12.0,63,0.00,CLR,CLR,0.00,WeatherDisplay:10.37,2013-05-21 16:38:00,
2013-05-21 11:43:00,60.8,48.5,29.65,WSW,251,7.0,7.0,64,0.00,CLR,CLR,0.00,WeatherDisplay:10.37,2013-05-21 16:43:00,
2013-05-21 11:48:00,61.1,47.5,29.65,SW,229,12.0,12.0,61,0.00,CLR,CLR,0.00,WeatherDisplay:10.37,2013-05-21 16:48:00,
2013-05-21 11:53:00,60.9,47.4,29.65,North,355,4.0,4.0,61,0.00,CLR,CLR,0.00,WeatherDisplay:10.37,2013-05-21 16:53:00,
2013-05-21 11:58:00,60.7,47.6,29.65,WSW,256,11.0,11.0,62,0.00,CLR,CLR,0.00,WeatherDisplay:10.37,2013-05-21 16:58:00,
2013-05-21 12:04:00,60.5,47.4,29.65,WSW,242,10.4,10.4,62,0.00,CLR,CLR,0.00,WeatherDisplay:10.37,2013-05-21 17:04:00,
2013-05-21 12:10:00,60.2,47.6,29.65,WSW,238,8.0,8.0,63,0.00,CLR,CLR,0.00,WeatherDisplay:10.37,2013-05-21 17:10:00,
2013-05-21 12:15:00,59.9,47.3,29.66,WNW,288,8.1,8.1,63,0.00,CLR,CLR,0.00,WeatherDisplay:10.37,2013-05-21 17:15:00,
2013-05-21 12:20:00,59.9,47.3,29.66,WNW,292,2.3,2.3,63,0.00,CLR,CLR,0.00,WeatherDisplay:10.37,2013-05-21 17:20:00,
2013-05-21 12:25:00,60.4,47.3,29.66,West,261,8.1,8.1,62,0.00,CLR,CLR,0.00,WeatherDisplay:10.37,2013-05-21 17:25:00,
2013-05-21 12:30:00,60.2,46.3,29.67,West,272,12.0,12.0,60,0.00,CLR,CLR,0.00,WeatherDisplay:10.37,2013-05-21 17:30:00,
2013-05-21 12:35:00,59.8,46.7,29.67,West,263,13.0,13.0,62,0.00,CLR,CLR,0.00,WeatherDisplay:10.37,2013-05-21 17:35:00,
2013-05-21 12:40:00,59.5,46.9,29.67,WSW,258,9.0,9.0,63,0.00,CLR,CLR,0.00,WeatherDisplay:10.37,2013-05-21 17:40:00,
2013-05-21 12:45:00,59.6,47.0,29.67,SW,234,8.0,8.0,63,0.00,CLR,CLR,0.00,WeatherDisplay:10.37,2013-05-21 17:45:00,
2013-05-21 12:50:00,59.6,46.1,29.67,WSW,255,6.0,6.0,61,0.00,CLR,CLR,0.00,WeatherDisplay:10.37,2013-05-21 17:50:00,
2013-05-21 12:55:00,59.6,46.6,29.68,WSW,254,4.0,4.0,62,0.00,CLR,CLR,0.00,WeatherDisplay:10.37,2013-05-21 17:55:00,
2013-05-21 13:00:00,59.7,46.7,29.68,WSW,256,10.4,10.4,62,0.00,CLR,CLR,0.00,WeatherDisplay:10.37,2013-05-21 18:00:00,
2013-05-21 13:05:00,59.5,46.5,29.68,WSW,250,6.9,6.9,62,0.00,CLR,CLR,0.00,WeatherDisplay:10.37,2013-05-21 18:05:00,
2013-05-21 13:10:00,59.4,46.8,29.67,WSW,246,11.5,11.5,63,0.00,CLR,CLR,0.00,WeatherDisplay:10.37,2013-05-21 18:10:00,
2013-05-21 13:15:00,59.3,46.7,29.67,WSW,244,9.0,9.0,63,0.00,CLR,CLR,0.00,WeatherDisplay:10.37,2013-05-21 18:15:00,
2013-05-21 13:20:00,59.3,47.1,29.68,WSW,246,8.1,8.1,64,0.00,CLR,CLR,0.00,WeatherDisplay:10.37,2013-05-21 18:20:00,
2013-05-21 13:25:00,59.5,46.5,29.67,WSW,256,9.2,9.2,62,0.00,CLR,CLR,0.00,WeatherDisplay:10.37,2013-05-21 18:25:00,
2013-05-21 13:30:00,59.7,47.5,29.68,WSW,249,5.0,5.0,64,0.00,CLR,CLR,0.00,WeatherDisplay:10.37,2013-05-21 18:30:00,
2013-05-21 13:35:00,59.7,46.7,29.67,WSW,254,5.0,12.0,62,0.00,CLR,CLR,0.00,WeatherDisplay:10.37,2013-05-21 18:35:00,
2013-05-21 13:40:00,59.8,47.6,29.67,WSW,250,2.0,7.0,64,0.00,CLR,CLR,0.00,WeatherDisplay:10.37,2013-05-21 18:40:00,
2013-05-21 13:45:00,60.0,46.9,29.67,WSW,250,6.0,10.0,62,0.00,CLR,CLR,0.00,WeatherDisplay:10.37,2013-05-21 18:45:00,
2013-05-21 13:50:00,60.0,46.9,29.67,WSW,251,7.0,13.0,62,0.00,CLR,CLR,0.00,WeatherDisplay:10.37,2013-05-21 18:50:00,
2013-05-21 13:56:00,59.9,47.3,29.68,WNW,285,11.5,11.5,63,0.00,CLR,CLR,0.00,WeatherDisplay:10.37,2013-05-21 18:56:00,
2013-05-21 14:01:00,60.0,47.4,29.68,WSW,252,11.5,11.5,63,0.00,CLR,CLR,0.00,WeatherDisplay:10.37,2013-05-21 19:01:00,
2013-05-21 14:06:00,60.2,48.0,29.68,NW,318,7.0,7.0,64,0.00,CLR,CLR,0.00,WeatherDisplay:10.37,2013-05-21 19:06:00,
2013-05-21 14:12:00,60.5,48.3,29.68,WSW,252,6.9,6.9,64,0.00,CLR,CLR,0.00,WeatherDisplay:10.37,2013-05-21 19:12:00,
2013-05-21 14:17:00,61.0,47.9,29.67,NW,307,12.7,12.7,62,0.00,CLR,CLR,0.00,WeatherDisplay:10.37,2013-05-21 19:17:00,
2013-05-21 14:22:00,60.8,47.7,29.67,WSW,252,10.4,10.4,62,0.00,CLR,CLR,0.00,WeatherDisplay:10.37,2013-05-21 19:22:00,
2013-05-21 14:27:00,60.8,47.7,29.67,SSW,211,10.4,10.4,62,0.00,CLR,CLR,0.00,WeatherDisplay:10.37,2013-05-21 19:27:00,
2013-05-21 14:32:00,60.9,47.8,29.67,WSW,244,9.0,9.0,62,0.00,CLR,CLR,0.00,WeatherDisplay:10.37,2013-05-21 19:32:00,
2013-05-21 14:37:00,61.1,47.5,29.67,WSW,244,10.4,10.4,61,0.00,CLR,CLR,0.00,WeatherDisplay:10.37,2013-05-21 19:37:00,
2013-05-21 14:42:00,61.2,47.6,29.67,West,279,9.2,9.2,61,0.00,CLR,CLR,0.00,WeatherDisplay:10.37,2013-05-21 19:42:00,
2013-05-21 14:47:00,61.4,48.3,29.67,WSW,255,3.5,3.5,62,0.00,CLR,CLR,0.00,WeatherDisplay:10.37,2013-05-21 19:47:00,
2013-05-21 14:52:00,61.5,48.4,29.67,WNW,282,4.0,4.0,62,0.00,CLR,CLR,0.00,WeatherDisplay:10.37,2013-05-21 19:52:00,
2013-05-21 14:57:00,61.9,48.3,29.67,NNW,342,4.0,4.0,61,0.00,CLR,CLR,0.00,WeatherDisplay:10.37,2013-05-21 19:57:00,
2013-05-21 15:02:00,62.3,48.2,29.67,West,269,11.0,11.0,60,0.00,CLR,CLR,0.00,WeatherDisplay:10.37,2013-05-21 20:02:00,
2013-05-21 15:07:00,62.3,47.8,29.67,West,267,10.4,10.4,59,0.00,CLR,CLR,0.00,WeatherDisplay:10.37,2013-05-21 20:07:00,
2013-05-21 15:12:00,62.1,48.0,29.67,SSW,200,5.0,5.0,60,0.00,CLR,CLR,0.00,WeatherDisplay:10.37,2013-05-21 20:12:00,
2013-05-21 15:17:00,62.0,48.4,29.67,WSW,237,6.0,6.0,61,0.00,CLR,CLR,0.00,WeatherDisplay:10.37,2013-05-21 20:17:00,
2013-05-21 15:22:00,62.0,48.4,29.66,SW,229,9.0,9.0,61,0.00,CLR,CLR,0.00,WeatherDisplay:10.37,2013-05-21 20:22:00,
2013-05-21 15:27:00,62.7,48.2,29.66,SW,223,10.4,10.4,59,0.00,CLR,CLR,0.00,WeatherDisplay:10.37,2013-05-21 20:27:00,
2013-05-21 15:32:00,63.1,48.5,29.67,West,265,10.4,10.4,59,0.00,CLR,CLR,0.00,WeatherDisplay:10.37,2013-05-21 20:32:00,
2013-05-21 15:37:00,62.8,49.1,29.67,WSW,254,9.0,9.0,61,0.00,CLR,CLR,0.00,WeatherDisplay:10.37,2013-05-21 20:37:00,
2013-05-21 15:42:00,62.4,48.8,29.67,NW,313,6.0,6.0,61,0.00,CLR,CLR,0.00,WeatherDisplay:10.37,2013-05-21 20:42:00,
2013-05-21 15:47:00,62.6,49.0,29.67,WSW,246,9.0,9.0,61,0.00,CLR,CLR,0.00,WeatherDisplay:10.37,2013-05-21 20:47:00,
2013-05-21 15:52:00,62.9,48.3,29.67,WSW,250,8.0,8.0,59,0.00,CLR,CLR,0.00,WeatherDisplay:10.37,2013-05-21 20:52:00,
2013-05-21 15:57:00,62.7,49.1,29.67,West,276,7.0,7.0,61,0.00,CLR,CLR,0.00,WeatherDisplay:10.37,2013-05-21 20:57:00,
2013-05-21 16:02:00,62.5,48.9,29.67,WSW,246,10.0,10.0,61,0.00,CLR,CLR,0.00,WeatherDisplay:10.37,2013-05-21 21:02:00,
2013-05-21 16:07:00,62.2,49.4,29.67,NNW,327,2.3,2.3,63,0.00,CLR,CLR,0.00,WeatherDisplay:10.37,2013-05-21 21:07:00,
2013-05-21 16:12:00,62.0,49.3,29.67,NW,308,4.0,4.0,63,0.00,CLR,CLR,0.00,WeatherDisplay:10.37,2013-05-21 21:12:00,
2013-05-21 16:17:00,61.9,49.2,29.67,West,272,9.2,9.2,63,0.00,CLR,CLR,0.00,WeatherDisplay:10.37,2013-05-21 21:17:00,
2013-05-21 16:22:00,61.8,49.1,29.67,WSW,249,8.1,8.1,63,0.00,CLR,CLR,0.00,WeatherDisplay:10.37,2013-05-21 21:22:00,
2013-05-21 16:27:00,62.0,49.7,29.67,SW,223,4.0,4.0,64,0.00,CLR,CLR,0.00,WeatherDisplay:10.37,2013-05-21 21:27:00,
2013-05-21 16:32:00,62.1,49.4,29.67,WSW,247,7.0,7.0,63,0.00,CLR,CLR,0.00,WeatherDisplay:10.37,2013-05-21 21:32:00,
2013-05-21 16:37:00,61.9,50.0,29.66,WSW,254,7.0,7.0,65,0.00,CLR,CLR,0.00,WeatherDisplay:10.37,2013-05-21 21:37:00,
2013-05-21 16:42:00,61.8,49.5,29.66,WSW,253,6.0,6.0,64,0.00,CLR,CLR,0.00,WeatherDisplay:10.37,2013-05-21 21:42:00,
2013-05-21 16:47:00,61.8,49.5,29.66,West,273,7.0,7.0,64,0.00,CLR,CLR,0.00,WeatherDisplay:10.37,2013-05-21 21:47:00,
2013-05-21 16:52:00,61.9,49.6,29.66,West,264,9.2,9.2,64,0.00,CLR,CLR,0.00,WeatherDisplay:10.37,2013-05-21 21:52:00,
2013-05-21 16:57:00,62.0,50.1,29.66,West,259,2.3,2.3,65,0.00,CLR,CLR,0.00,WeatherDisplay:10.37,2013-05-21 21:57:00,
2013-05-21 17:02:00,62.1,49.8,29.66,WSW,249,5.0,5.0,64,0.00,CLR,CLR,0.00,WeatherDisplay:10.37,2013-05-21 22:02:00,
2013-05-21 17:07:00,62.1,49.8,29.66,West,263,6.9,6.9,64,0.00,CLR,CLR,0.00,WeatherDisplay:10.37,2013-05-21 22:07:00,
2013-05-21 17:12:00,61.9,49.6,29.66,West,273,2.0,2.0,64,0.00,CLR,CLR,0.00,WeatherDisplay:10.37,2013-05-21 22:12:00,
2013-05-21 17:17:00,61.8,49.5,29.66,WSW,242,5.8,5.8,64,0.00,CLR,CLR,0.00,WeatherDisplay:10.37,2013-05-21 22:17:00,
2013-05-21 17:22:00,61.7,49.4,29.67,West,277,11.5,11.5,64,0.00,CLR,CLR,0.00,WeatherDisplay:10.37,2013-05-21 22:22:00,
2013-05-21 17:27:00,61.6,49.7,29.67,West,259,6.9,6.9,65,0.00,CLR,CLR,0.00,WeatherDisplay:10.37,2013-05-21 22:27:00,
2013-05-21 17:32:00,61.6,49.7,29.67,WSW,248,6.9,6.9,65,0.00,CLR,CLR,0.00,WeatherDisplay:10.37,2013-05-21 22:32:00,
2013-05-21 17:37:00,61.7,50.2,29.67,WSW,253,3.5,3.5,66,0.00,CLR,CLR,0.00,WeatherDisplay:10.37,2013-05-21 22:37:00,
2013-05-21 17:42:00,61.8,50.3,29.67,WSW,246,8.0,8.0,66,0.00,CLR,CLR,0.00,WeatherDisplay:10.37,2013-05-21 22:42:00,
2013-05-21 17:47:00,61.8,50.3,29.67,WNW,295,7.0,7.0,66,0.00,CLR,CLR,0.00,WeatherDisplay:10.37,2013-05-21 22:47:00,
2013-05-21 17:52:00,61.7,50.2,29.67,West,279,4.0,4.0,66,0.00,CLR,CLR,0.00,WeatherDisplay:10.37,2013-05-21 22:52:00,
2013-05-21 17:57:00,61.7,50.6,29.67,WSW,246,4.0,4.0,67,0.00,CLR,CLR,0.00,WeatherDisplay:10.37,2013-05-21 22:57:00,
2013-05-21 18:02:00,61.7,50.6,29.67,SW,231,4.6,4.6,67,0.00,CLR,CLR,0.00,WeatherDisplay:10.37,2013-05-21 23:02:00,
2013-05-21 18:07:00,61.7,50.6,29.67,West,269,4.0,4.0,67,0.00,CLR,CLR,0.00,WeatherDisplay:10.37,2013-05-21 23:07:00,
2013-05-21 18:12:00,61.7,51.0,29.67,WNW,293,6.9,6.9,68,0.00,CLR,CLR,0.00,WeatherDisplay:10.37,2013-05-21 23:12:00,
2013-05-21 18:18:00,61.7,50.6,29.67,WSW,253,9.0,9.0,67,0.00,CLR,CLR,0.00,WeatherDisplay:10.37,2013-05-21 23:18:00,
2013-05-21 18:23:00,61.6,50.9,29.66,WNW,291,7.0,7.0,68,0.00,CLR,CLR,0.00,WeatherDisplay:10.37,2013-05-21 23:23:00,
2013-05-21 18:28:00,61.5,50.8,29.66,West,269,3.5,3.5,68,0.00,CLR,CLR,0.00,WeatherDisplay:10.37,2013-05-21 23:28:00,
2013-05-21 18:33:00,61.5,50.8,29.66,West,273,4.6,4.6,68,0.00,CLR,CLR,0.00,WeatherDisplay:10.37,2013-05-21 23:33:00,
2013-05-21 18:38:00,61.5,50.8,29.66,West,267,3.5,3.5,68,0.00,CLR,CLR,0.00,WeatherDisplay:10.37,2013-05-21 23:38:00,
2013-05-21 18:43:00,61.5,50.8,29.66,NW,323,4.0,4.0,68,0.00,CLR,CLR,0.00,WeatherDisplay:10.37,2013-05-21 23:43:00,
2013-05-21 18:48:00,61.5,51.2,29.66,West,265,4.0,4.0,69,0.00,CLR,CLR,0.00,WeatherDisplay:10.37,2013-05-21 23:48:00,
2013-05-21 18:53:00,61.4,51.1,29.66,NW,305,1.2,1.2,69,0.00,CLR,CLR,0.00,WeatherDisplay:10.37,2013-05-21 23:53:00,
2013-05-21 18:58:00,61.4,50.7,29.66,WNW,286,8.1,8.1,68,0.00,CLR,CLR,0.00,WeatherDisplay:10.37,2013-05-21 23:58:00,
2013-05-21 19:03:00,61.4,51.1,29.66,West,265,2.3,2.3,69,0.00,CLR,CLR,0.00,WeatherDisplay:10.37,2013-05-22 00:03:00,
2013-05-21 19:08:00,61.4,51.1,29.67,WNW,293,8.1,8.1,69,0.00,CLR,CLR,0.00,WeatherDisplay:10.37,2013-05-22 00:08:00,
2013-05-21 19:13:00,61.5,51.2,29.67,NW,313,3.5,3.5,69,0.00,CLR,CLR,0.00,WeatherDisplay:10.37,2013-05-22 00:13:00,
2013-05-21 19:18:00,61.4,50.7,29.66,NNW,331,2.3,2.3,68,0.00,CLR,CLR,0.00,WeatherDisplay:10.37,2013-05-22 00:18:00,
2013-05-21 19:23:00,61.4,51.1,29.66,NNW,329,2.3,2.3,69,0.00,CLR,CLR,0.00,WeatherDisplay:10.37,2013-05-22 00:23:00,
2013-05-21 19:28:00,61.4,51.1,29.65,WNW,286,3.0,3.0,69,0.00,CLR,CLR,0.00,WeatherDisplay:10.37,2013-05-22 00:28:00,
2013-05-21 19:33:00,61.3,51.0,29.66,WNW,287,3.5,3.5,69,0.00,CLR,CLR,0.00,WeatherDisplay:10.37,2013-05-22 00:33:00,
2013-05-21 19:38:00,61.2,50.9,29.65,NW,316,2.3,2.3,69,0.00,CLR,CLR,0.00,WeatherDisplay:10.37,2013-05-22 00:38:00,
2013-05-21 19:43:00,61.0,50.8,29.66,West,277,3.5,3.5,69,0.00,CLR,CLR,0.00,WeatherDisplay:10.37,2013-05-22 00:43:00,
2013-05-21 19:48:00,60.9,50.7,29.66,WNW,296,3.5,3.5,69,0.00,CLR,CLR,0.00,WeatherDisplay:10.37,2013-05-22 00:48:00,
2013-05-21 19:53:00,60.8,51.0,29.66,West,263,7.0,7.0,70,0.00,CLR,CLR,0.00,WeatherDisplay:10.37,2013-05-22 00:53:00,
2013-05-21 19:58:00,60.7,50.9,29.67,WNW,301,3.0,3.0,70,0.00,CLR,CLR,0.00,WeatherDisplay:10.37,2013-05-22 00:58:00,
2013-05-21 20:03:00,60.6,50.8,29.67,WNW,287,3.0,3.0,70,0.00,CLR,CLR,0.00,WeatherDisplay:10.37,2013-05-22 01:03:00,
2013-05-21 20:08:00,60.6,50.8,29.67,WNW,295,2.3,2.3,70,0.00,CLR,CLR,0.00,WeatherDisplay:10.37,2013-05-22 01:08:00,
2013-05-21 20:13:00,60.5,50.7,29.67,NW,305,2.3,2.3,70,0.00,CLR,CLR,0.00,WeatherDisplay:10.37,2013-05-22 01:13:00,
2013-05-21 20:18:00,60.4,50.6,29.68,NW,324,3.5,3.5,70,0.00,CLR,CLR,0.00,WeatherDisplay:10.37,2013-05-22 01:18:00,
2013-05-21 20:23:00,60.3,50.5,29.68,NNE,29,2.3,2.3,70,0.00,CLR,CLR,0.00,WeatherDisplay:10.37,2013-05-22 01:23:00,
2013-05-21 20:28:00,60.1,50.7,29.69,WNW,284,3.5,3.5,71,0.00,CLR,CLR,0.00,WeatherDisplay:10.37,2013-05-22 01:28:00,
2013-05-21 20:33:00,59.9,50.5,29.69,North,355,3.0,3.0,71,0.00,CLR,CLR,0.00,WeatherDisplay:10.37,2013-05-22 01:33:00,
2013-05-21 20:38:00,59.6,50.6,29.69,WNW,282,1.2,1.2,72,0.00,CLR,CLR,0.00,WeatherDisplay:10.37,2013-05-22 01:38:00,
2013-05-21 20:43:00,59.5,50.8,29.69,NNW,337,2.3,2.3,73,0.00,CLR,CLR,0.00,WeatherDisplay:10.37,2013-05-22 01:43:00,
2013-05-21 20:49:00,59.3,50.3,29.69,WSW,240,3.0,3.0,72,0.00,CLR,CLR,0.00,WeatherDisplay:10.37,2013-05-22 01:49:00,
2013-05-21 20:54:00,59.0,50.4,29.69,WNW,293,3.5,3.5,73,0.00,CLR,CLR,0.00,WeatherDisplay:10.37,2013-05-22 01:54:00,
2013-05-21 20:59:00,58.9,50.6,29.69,WNW,282,2.0,2.0,74,0.00,CLR,CLR,0.00,WeatherDisplay:10.37,2013-05-22 01:59:00,
2013-05-21 21:04:00,58.7,50.4,29.69,WNW,292,5.0,5.0,74,0.00,CLR,CLR,0.00,WeatherDisplay:10.37,2013-05-22 02:04:00,
2013-05-21 21:09:00,58.6,50.7,29.69,WNW,292,1.2,0.0,75,0.00,CLR,CLR,0.00,WeatherDisplay:10.37,2013-05-22 02:09:00,
2013-05-21 21:14:00,58.4,50.5,29.69,WNW,302,2.3,2.3,75,0.00,CLR,CLR,0.00,WeatherDisplay:10.37,2013-05-22 02:14:00,
2013-05-21 21:19:00,58.2,50.3,29.69,North,351,1.2,1.2,75,0.00,CLR,CLR,0.00,WeatherDisplay:10.37,2013-05-22 02:19:00,
2013-05-21 21:24:00,58.0,50.1,29.69,NW,321,1.2,1.2,75,0.00,CLR,CLR,0.00,WeatherDisplay:10.37,2013-05-22 02:24:00,
2013-05-21 21:29:00,57.7,50.2,29.69,NNW,336,3.5,3.5,76,0.00,CLR,CLR,0.00,WeatherDisplay:10.37,2013-05-22 02:29:00,
2013-05-21 21:34:00,57.5,50.0,29.69,WNW,303,2.3,2.3,76,0.00,CLR,CLR,0.00,WeatherDisplay:10.37,2013-05-22 02:34:00,
2013-05-21 21:39:00,57.3,50.1,29.69,NNE,15,1.2,1.2,77,0.00,CLR,CLR,0.00,WeatherDisplay:10.37,2013-05-22 02:39:00,
2013-05-21 21:44:00,57.2,50.1,29.69,North,360,1.2,0.0,77,0.00,CLR,CLR,0.00,WeatherDisplay:10.37,2013-05-22 02:44:00,
2013-05-21 21:49:00,57.1,50.3,29.69,NW,321,2.3,2.3,78,0.00,CLR,CLR,0.00,WeatherDisplay:10.37,2013-05-22 02:49:00,
2013-05-21 21:54:00,57.0,50.5,29.69,NW,309,1.2,1.2,79,0.00,CLR,CLR,0.00,WeatherDisplay:10.37,2013-05-22 02:54:00,
2013-05-21 21:59:00,56.9,50.5,29.70,NNW,344,2.3,2.3,79,0.00,CLR,CLR,0.00,WeatherDisplay:10.37,2013-05-22 02:59:00,
2013-05-21 22:04:00,56.8,50.4,29.70,NE,55,2.0,2.0,79,0.00,CLR,CLR,0.00,WeatherDisplay:10.37,2013-05-22 03:04:00,
2013-05-21 22:09:00,56.8,50.4,29.70,NNW,338,1.2,1.2,79,0.00,CLR,CLR,0.00,WeatherDisplay:10.37,2013-05-22 03:09:00,
2013-05-21 22:14:00,56.7,50.3,29.70,NNW,339,1.2,1.2,79,0.00,CLR,CLR,0.00,WeatherDisplay:10.37,2013-05-22 03:14:00,
2013-05-21 22:19:00,56.6,50.2,29.70,North,355,1.2,1.2,79,0.00,CLR,CLR,0.00,WeatherDisplay:10.37,2013-05-22 03:19:00,
2013-05-21 22:24:00,56.4,50.0,29.70,WNW,297,3.0,3.0,79,0.00,CLR,CLR,0.00,WeatherDisplay:10.37,2013-05-22 03:24:00,
2013-05-21 22:29:00,56.2,49.8,29.70,NNE,18,1.2,1.2,79,0.00,CLR,CLR,0.00,WeatherDisplay:10.37,2013-05-22 03:29:00,
2013-05-21 22:34:00,56.0,49.6,29.70,WNW,298,2.0,2.0,79,0.00,CLR,CLR,0.00,WeatherDisplay:10.37,2013-05-22 03:34:00,
2013-05-21 22:39:00,55.8,49.4,29.70,NNE,13,1.2,1.2,79,0.00,CLR,CLR,0.00,WeatherDisplay:10.37,2013-05-22 03:39:00,
2013-05-21 22:44:00,55.7,49.3,29.71,NW,306,1.2,1.2,79,0.00,CLR,CLR,0.00,WeatherDisplay:10.37,2013-05-22 03:44:00,
2013-05-21 22:49:00,55.5,49.4,29.71,NW,306,1.2,1.2,80,0.00,CLR,CLR,0.00,WeatherDisplay:10.37,2013-05-22 03:49:00,
2013-05-21 22:54:00,55.3,49.2,29.71,NW,321,1.2,1.2,80,0.00,CLR,CLR,0.00,WeatherDisplay:10.37,2013-05-22 03:54:00,
2013-05-21 22:59:00,55.2,49.1,29.71,NNW,327,1.2,1.2,80,0.00,CLR,CLR,0.00,WeatherDisplay:10.37,2013-05-22 03:59:00,
2013-05-21 23:01:00,55.1,49.0,29.71,NNW,328,1.2,1.2,80,0.00,CLR,CLR,0.00,WeatherDisplay:10.37,2013-05-22 04:01:00,
2013-05-21 23:02:00,55.1,49.0,29.71,NNW,336,1.2,1.2,80,0.00,CLR,CLR,0.00,WeatherDisplay:10.37,2013-05-22 04:02:00,
2013-05-21 23:03:00,55.1,49.0,29.71,NW,326,1.2,0.0,80,0.00,CLR,CLR,0.00,WeatherDisplay:10.37,2013-05-22 04:03:00,
2013-05-21 23:05:00,55.0,48.9,29.71,NNW,346,1.2,1.2,80,0.00,CLR,CLR,0.00,WeatherDisplay:10.37,2013-05-22 04:05:00,
2013-05-21 23:08:00,55.0,48.9,29.71,NNW,348,1.2,1.2,80,0.00,CLR,CLR,0.00,WeatherDisplay:10.37,2013-05-22 04:08:00,
2013-05-21 23:13:00,54.8,49.1,29.72,NNW,347,1.2,1.2,81,0.00,CLR,CLR,0.00,WeatherDisplay:10.37,2013-05-22 04:13:00,
2013-05-21 23:18:00,54.8,49.1,29.72,North,360,1.2,1.2,81,0.00,CLR,CLR,0.00,WeatherDisplay:10.37,2013-05-22 04:18:00,
2013-05-21 23:23:00,54.7,49.0,29.72,NW,304,2.3,2.3,81,0.00,CLR,CLR,0.00,WeatherDisplay:10.37,2013-05-22 04:23:00,
2013-05-21 23:28:00,54.7,49.0,29.72,WNW,302,1.2,1.2,81,0.00,CLR,CLR,0.00,WeatherDisplay:10.37,2013-05-22 04:28:00,
2013-05-21 23:33:00,54.7,49.0,29.72,WNW,302,1.2,1.2,81,0.00,CLR,CLR,0.00,WeatherDisplay:10.37,2013-05-22 04:33:00,
2013-05-21 23:38:00,54.7,49.3,29.72,WNW,297,3.0,3.0,82,0.00,CLR,CLR,0.00,WeatherDisplay:10.37,2013-05-22 04:38:00,
2013-05-21 23:43:00,54.6,49.2,29.72,WNW,290,1.2,1.2,82,0.00,CLR,CLR,0.00,WeatherDisplay:10.37,2013-05-22 04:43:00,
2013-05-21 23:48:00,54.6,48.9,29.72,WNW,283,2.0,2.0,81,0.00,CLR,CLR,0.00,WeatherDisplay:10.37,2013-05-22 04:48:00,
2013-05-21 23:53:00,54.5,48.8,29.72,NW,309,1.2,1.2,81,0.00,CLR,CLR,0.00,WeatherDisplay:10.37,2013-05-22 04:53:00,
2013-05-21 23:58:00,54.5,48.8,29.72,NW,322,2.3,2.3,81,0.00,CLR,CLR,0.00,WeatherDisplay:10.37,2013-05-22 04:58:00,